Location: Ash Swamp
(41.5170°N, 74.6157°W)
Time: 02:21:45
(UTC+00:00)

Cosmos 1066 Rocket - Pass Details

Date: 14 July 2020
Orbit: 799 x 894 km, 81.2° (Epoch: 14 August)

Event Time Altitude Azimuth Distance (km) Brightness Sun altitude
Rises 07:54:06 0° 347° (NNW) 3,513 8.0 -15.7°
Reaches altitude 10° 07:56:34 10° 344° (NNW) 2,572 7.2 -15.4°
Maximum altitude 08:02:22 64° 264° (W) 983 4.3 -14.6°
Enters shadow 08:07:49 12° 185° (S) 2,433 6.1 -14.0°
